Terminal Aerodrome Forecast
Issued by NWS

Home | Current Version | Previous Version | Graphics & Text | Print | Product List | Glossary On
Versions: 1 2 3 4 5 6 7 8 9 10 11 12 13 14 15 16 17 18 19 20 21 22 23 24
535
FTUS43 KUNR 110525
TAFGCC
TAF
KGCC 110525Z 1106/1206 22013KT P6SM BKN150
     FM112100 32017KT P6SM BKN030=

USA.gov is the U.S. government's official web portal to all federal, state and local government web resources and services.